TIME,DELAY(SENSOR),PRES,OXYGEN,RAWTEMP,T(OPTODE),TCPHASE,FLUOR,BETA(BETA700),BETA(BETA412),BETA(BETA440),CDOM,C(CSC),ED(ED412.20),ED(ED444.00),ED(ED489.60),ED(ED554.30),LU(LU412.10),LU(LU443.90),LU(LU489.70),LU(LU554.70),COMP,TILTX,TILTY,CHECK
1370320233,5810,868.3200073242188000,32.0596199035644500,561.7885131835938000,4.4304537773132320,56.7715988159179700,55,100,99,79,81,15622,0,0,0,0,2147124964,2147766765,2147563072,2147568594,2373,2,13,60994
1370323829,5810,942.4799804687500000,36.8887214660644500,568.6215820312500000,4.2183880805969240,56.0747489929199200,55,98,100,79,81,15622,0,0,0,0,2147124598,2147769453,2147572790,2147564361,3071,2,13,44093
1370327429,5811,960.4899902343750000,34.8507194519043000,570.0388793945312000,4.1743531227111820,56.4095497131347660,55,99,99,77,81,15622,0,0,0,0,2147124480,2147769609,2147572918,2147566957,47,3,13,65004
1370331029,5814,990.7899780273438000,35.5206108093261700,573.1788940429688000,4.0767331123352050,56.3314590454101560,56,97,100,76,80,15615,0,0,0,0,2147123318,2147769856,2147572406,2147567478,3519,2,13,54393
1370334629,5810,993.3699951171875000,37.3405494689941400,572.6754150390625000,4.0923919677734375,56.0441398620605500,55,95,100,78,80,15620,0,0,0,0,2147126354,2147773321,2147576704,2147567561,3438,2,13,51336
1370338229,5814,993.3499755859375000,39.0445404052734400,574.1732177734375000,4.0458011627197270,55.8055801391601560,55,97,99,78,81,15618,0,0,0,0,2147123885,2147773284,2147570148,2147568027,24,3,13,1972
1370341829,5810,996.2299804687500000,38.0250511169433600,574.4379882812500000,4.0375652313232420,55.9584503173828100,55,96,98,78,81,15620,0,0,0,0,2147125065,2147767762,2147570340,2147568987,3267,2,13,31445
1370345429,5812,1004.8900146484375000,39.3948097229003900,574.4921264648438000,4.0358810424804690,55.7563591003418000,55,100,101,78,81,15618,0,0,0,0,2147123035,2147772891,2147572745,2147568585,74,2,13,60266
1370349029,5812,1000.2999877929688000,40.0792617797851560,574.0838012695312000,4.0485839843750000,55.6491508483886700,55,98,99,76,81,15617,0,0,0,0,2147123794,2147772306,2147570148,2147566354,3453,2,13,24683
1370352629,5812,1009.4400024414062000,41.1483192443847660,573.8903198242188000,4.0546050071716310,55.4911994934082000,53,98,99,78,80,15619,0,0,0,0,2147124416,2147769645,2147570285,2147567954,3290,2,13,40335
1370356229,5810,1006.2700195312500000,34.0171394348144500,573.2059936523438000,4.0758900642395020,56.5665702819824200,55,96,99,78,82,15617,0,0,0,0,2147124818,2147772754,2147573348,2147568027,381,2,13,17483
1370359829,5810,1001.2299804687500000,33.4845085144043000,574.5186157226562000,4.0350551605224610,56.6645011901855500,55,98,100,77,81,15618,0,0,0,0,2147126208,2147772251,2147571748,2147570148,68,3,13,25238
1370363429,5807,1005.8800048828125000,36.4188499450683600,574.7034301757812000,4.0293049812316895,56.2058982849121100,55,98,99,78,83,15616,0,0,0,0,2147125248,2147770962,2147570660,2147568658,160,3,13,5441
1370367029,5812,1012.0200195312500000,36.4942588806152340,573.3195190429688000,4.0723590850830080,56.1799507141113300,56,97,99,78,81,15614,0,0,0,0,2147124754,2147769773,2147570523,2147567323,56,2,13,48631
1370370629,5810,1004.4199829101562000,37.5317001342773440,573.9509277343750000,4.0527172088623050,56.0289916992187500,54,103,98,78,81,15616,0,0,0,0,2147126061,2147770194,2147568118,2147567222,620,2,13,58298
1370374229,5808,1007.4699707031250000,35.5026893615722660,574.2741699218750000,4.0426602363586430,56.3441390991210940,54,98,99,77,81,15613,0,0,0,0,2147127808,2147766573,2147569984,2147566683,501,3,13,50812
1370377829,5810,1012.7800292968750000,38.5185890197753900,574.2593994140625000,4.0431208610534670,55.8790283203125000,55,98,100,78,81,15616,0,0,0,0,2147125275,2147769170,2147567826,2147569737,291,3,13,47881
1370381429,5811,1007.2399902343750000,32.0193710327148440,574.7777709960938000,4.0269927978515625,56.9062309265136700,54,99,100,77,80,15615,0,0,0,0,2147123931,2147762825,2147567890,2147568694,194,3,13,19619
1370385029,5807,1007.7000122070312000,36.5095405578613300,575.3718872070312000,4.0085010528564450,56.2027397155761700,55,99,100,78,81,15615,0,0,0,0,2147122358,2147765257,2147572781,2147567780,113,2,13,13371
1370388629,5807,1007.2000122070312000,39.4131698608398440,574.8333740234375000,4.0252590179443360,55.7565803527832000,54,97,100,77,80,15595,0,0,0,0,2147123062,2147768420,2147571163,2147564644,280,2,13,26817
1370392229,5809,1003.9799804687500000,39.2177696228027340,574.8795776367188000,4.0238227844238280,55.7859306335449200,53,102,99,78,81,15614,0,0,0,0,2147123657,2147768411,2147573129,2147571584,309,3,13,60373
1370395829,5811,1003.6900024414062000,36.3051605224609400,575.4218139648438000,4.0069499015808105,56.2358512878418000,54,97,99,77,82,15613,0,0,0,0,2147122532,2147771099,2147571657,2147567259,3451,3,13,16432
1370399429,5812,1004.0800170898438000,37.5150909423828100,575.5842895507812000,4.0018920898437500,56.0491218566894500,55,98,100,78,81,15614,0,0,0,0,2147125869,2147767698,2147571017,2147566390,387,2,13,42483
1370403029,5811,1005.6900024414062000,40.6719818115234400,575.8645019531250000,3.9931719303131104,55.5764808654785160,56,97,99,78,80,15612,0,0,0,0,2147123081,2147774180,2147571949,2147569974,60,3,13,59355
1370406629,5810,1006.8400268554688000,33.2634506225585940,575.5640258789062000,4.0025248527526855,56.7155113220214840,54,98,99,77,82,15612,0,0,0,0,2147124580,2147769462,2147570285,2147567753,3483,2,13,12563
1370410229,5809,1014.6300048828125000,39.9577102661132800,574.6226806640625000,4.0318179130554200,55.6714401245117200,55,98,100,77,81,15612,0,0,0,0,2147120484,2147770889,2147570770,2147564699,327,3,13,42271
1370413829,5809,1009.9500122070312000,39.9721107482910160,575.2667236328125000,4.0117759704589840,55.6736183166503900,55,98,100,76,81,15611,0,0,0,0,2147124105,2147771190,2147568228,2147566290,3357,2,13,48242
1370417429,5810,1010.1300048828125000,40.5634498596191400,574.6738281250000000,4.0302262306213380,55.5805091857910160,55,96,100,77,80,15610,0,0,0,0,2147122450,2147766528,2147569947,2147568118,3304,2,13,16557
1370421029,5810,1008.9899902343750000,35.5477485656738300,575.5556030273438000,4.0027871131896970,56.3496818542480500,54,98,100,77,80,15608,0,0,0,0,2147125220,2147769289,2147571145,2147565668,139,2,13,14754
1370424629,5811,1008.5700073242188000,37.8264007568359400,575.3837280273438000,4.0081372261047360,56.0040702819824200,55,96,98,78,80,15610,0,0,0,0,2147123830,2147769993,2147574162,2147566281,7,2,13,54730
1370428229,5811,1007.0999755859375000,37.6545600891113300,575.8914794921875000,3.9923319816589355,56.0304412841796900,55,97,99,77,81,15609,0,0,0,0,2147123611,2147769161,2147561874,2147566281,220,2,13,23125
1370431829,5810,1003.2000122070312000,35.3300094604492200,576.1864013671875000,3.9831519126892090,56.3935585021972660,54,95,99,78,80,15609,0,0,0,0,2147122587,2147771273,2147567872,2147566710,3595,3,13,9757
1370435429,5811,1009.8300170898438000,40.5156707763671900,575.8541870117188000,3.9934899806976320,55.6002006530761700,55,97,100,79,81,15609,0,0,0,0,2147123702,2147774134,2147574080,2147565677,80,2,13,55686
1370439029,5811,1017.5200195312500000,41.7450103759765600,575.5833740234375000,4.0019187927246090,55.4206199645996100,56,99,100,78,81,15566,0,0,0,0,2147122432,2147764699,2147569883,2147567826,3087,2,13,2940
1370442629,5809,1015.4500122070312000,38.5707206726074200,574.6853027343750000,4.0298690795898440,55.8818511962890600,54,97,98,78,81,15566,0,0,0,0,2147124041,2147766006,2147569078,2147567158,311,2,13,13928
1370446229,5812,1012.3699951171875000,39.9391403198242200,574.2766723632812000,4.0425829887390140,55.6685600280761700,54,98,100,78,81,15560,0,0,0,0,2147123904,2147770688,2147571117,2147565558,3567,2,13,36018
1370449829,5809,1016.3200073242188000,41.2607917785644500,574.8267211914062000,4.0254712104797360,55.4821815490722660,55,97,99,77,81,15560,0,0,0,0,2147124077,2147768466,2147568868,2147566966,293,2,13,46944
1370453429,5810,1005.1900024414062000,38.9685211181640600,576.0471191406250000,3.9874880313873290,55.8357086181640600,55,98,100,78,81,15564,0,0,0,0,2147125302,2147773037,2147572123,2147565449,30,3,13,46252
1370457029,5811,1003.2600097656250000,40.9403915405273440,576.1303710937500000,3.9848940372467040,55.5401115417480500,55,99,100,77,80,15564,0,0,0,0,2147123949,2147775268,2147569472,2147565641,179,3,13,14789
1370460629,5808,1015.9600219726562000,40.9188385009765600,574.7395019531250000,4.0281829833984375,55.5309715270996100,54,97,98,77,81,15562,0,0,0,0,2147123465,2147773403,2147569947,2147567625,119,3,13,43107
1370463355,5812,1014.2399902343750000,36.1112899780273440,574.5114135742188000,4.0352802276611330,56.2524795532226560,55,98,100,78,81,15562,0,0,0,0,2147122971,2147772086,2147567680,2147567277,3470,2,13,39694
